When you browse on this site, cookies collect data to enhance your experience and personalize the content and advertising you see.
Visit our Privacy Policy to learn more. By continuing to use the site, you agree to this use of cookies and data.
  • în România
  • Lista ţărilor
  • Pe 7 zile
  • Temperatura apei
  • Meteo pe hartă
  • Widget-uri
  • user-avatar
    Intrare

    Meteo pe oră la Mochudi

    Astăzi, 20 Septembrie, Vineri

    Timp Temperatura Precipitaţii Vânt Presiune Umiditate
    00:00 +22°C° 0 mm 4 m/s 685 mmHg 33%
    01:00 +21°C° 0 mm 3 m/s 684 mmHg 38%
    02:00 +20°C° 0 mm 3 m/s 684 mmHg 44%
    03:00 +19°C° 0 mm 3 m/s 684 mmHg 50%
    04:00 +18°C° 0 mm 2 m/s 684 mmHg 55%
    05:00 +17°C° 0 mm 2 m/s 684 mmHg 61%
    06:00 +18°C° 0 mm 2 m/s 684 mmHg 57%
    07:00 +19°C° 0 mm 2 m/s 685 mmHg 54%
    08:00 +21°C° 0 mm 2 m/s 686 mmHg 51%
    09:00 +25°C° 0 mm 3 m/s 686 mmHg 41%
    10:00 +28°C° 0 mm 4 m/s 686 mmHg 31%
    11:00 +32°C° 0 mm 4 m/s 686 mmHg 21%
    12:00 +33°C° 0 mm 5 m/s 686 mmHg 17%
    13:00 +35°C° 0 mm 5 m/s 685 mmHg 14%
    14:00 +36°C° 0 mm 5 m/s 684 mmHg 11%
    15:00 +36°C° 0 mm 5 m/s 684 mmHg 11%
    16:00 +35°C° 0 mm 6 m/s 683 mmHg 11%
    17:00 +35°C° 0 mm 6 m/s 682 mmHg 12%
    18:00 +33°C° 0 mm 5 m/s 682 mmHg 14%
    19:00 +29°C° 0 mm 3 m/s 682 mmHg 17%
    20:00 +27°C° 0 mm 2 m/s 682 mmHg 19%
    21:00 +26°C° 0 mm 2 m/s 682 mmHg 21%
    22:00 +25°C° 0 mm 2 m/s 682 mmHg 23%
    23:00 +24°C° 0 mm 2 m/s 682 mmHg 25%

    Mâine, 21 Septembrie, Sâmbătă

    Timp Temperatura Precipitaţii Vânt Presiune Umiditate
    00:00 +23°C° 0 mm 2 m/s 682 mmHg 28%
    01:00 +21°C° 0 mm 2 m/s 682 mmHg 32%
    02:00 +20°C° 0 mm 2 m/s 682 mmHg 35%
    03:00 +19°C° 0 mm 2 m/s 682 mmHg 39%
    04:00 +19°C° 0 mm 2 m/s 681 mmHg 44%
    05:00 +18°C° 0 mm 2 m/s 681 mmHg 48%
    06:00 +19°C° 0 mm 2 m/s 682 mmHg 46%
    07:00 +20°C° 0 mm 3 m/s 682 mmHg 44%
    08:00 +22°C° 0 mm 3 m/s 683 mmHg 42%
    09:00 +25°C° 0 mm 4 m/s 683 mmHg 36%
    10:00 +28°C° 0 mm 4 m/s 683 mmHg 31%
    11:00 +32°C° 0 mm 4 m/s 683 mmHg 25%
    12:00 +33°C° 0 mm 4 m/s 682 mmHg 21%
    13:00 +34°C° 0 mm 4 m/s 682 mmHg 18%
    14:00 +36°C° 0 mm 4 m/s 681 mmHg 14%
    15:00 +36°C° 0 mm 4 m/s 681 mmHg 13%
    16:00 +36°C° 0 mm 4 m/s 680 mmHg 12%
    17:00 +36°C° 0 mm 4 m/s 680 mmHg 11%
    18:00 +33°C° 0 mm 3 m/s 680 mmHg 14%
    19:00 +29°C° 0 mm 3 m/s 679 mmHg 17%
    20:00 +27°C° 0 mm 3 m/s 679 mmHg 20%
    21:00 +26°C° 0 mm 3 m/s 679 mmHg 21%
    22:00 +25°C° 0 mm 3 m/s 679 mmHg 23%
    23:00 +24°C° 0 mm 3 m/s 680 mmHg 25%

    Poimâine, 22 Septembrie, Duminică

    Timp Temperatura Precipitaţii Vânt Presiune Umiditate
    00:00 +22°C° 0 mm 3 m/s 679 mmHg 26%
    01:00 +21°C° 0 mm 3 m/s 679 mmHg 28%
    02:00 +21°C° 0 mm 3 m/s 679 mmHg 29%
    03:00 +20°C° 0 mm 3 m/s 679 mmHg 30%
    04:00 +19°C° 0 mm 3 m/s 678 mmHg 31%
    05:00 +19°C° 0 mm 3 m/s 678 mmHg 32%
    06:00 +20°C° 0 mm 4 m/s 679 mmHg 30%
    07:00 +22°C° 0 mm 4 m/s 680 mmHg 28%
    08:00 +23°C° 0 mm 4 m/s 680 mmHg 25%
    09:00 +27°C° 0 mm 3 m/s 681 mmHg 21%
    10:00 +30°C° 0 mm 3 m/s 681 mmHg 18%
    11:00 +34°C° 0 mm 2 m/s 681 mmHg 14%
    12:00 +35°C° 0 mm 2 m/s 681 mmHg 12%
    13:00 +37°C° 0 mm 2 m/s 680 mmHg 10%
    14:00 +37°C° 0 mm 1 m/s 680 mmHg 8%
    15:00 +38°C° 0 mm 2 m/s 680 mmHg 8%
    16:00 +38°C° 0 mm 2 m/s 679 mmHg 7%
    17:00 +37°C° 0 mm 2 m/s 679 mmHg 7%
    18:00 +35°C° 0 mm 2 m/s 679 mmHg 8%
    19:00 +31°C° 0 mm 2 m/s 679 mmHg 10%
    20:00 +28°C° 0 mm 1 m/s 679 mmHg 11%
    21:00 +27°C° 0 mm 2 m/s 679 mmHg 12%
    22:00 +26°C° 0 mm 2 m/s 679 mmHg 13%
    23:00 +25°C° 0 mm 3 m/s 680 mmHg 14%

    23 Septembrie, Luni

    Timp Temperatura Precipitaţii Vânt Presiune Umiditate
    00:00 +24°C° 0 mm 3 m/s 680 mmHg 17%
    01:00 +24°C° 0 mm 3 m/s 680 mmHg 19%
    02:00 +22°C° 0 mm 3 m/s 679 mmHg 22%
    03:00 +21°C° 0 mm 3 m/s 679 mmHg 23%
    04:00 +20°C° 0 mm 3 m/s 680 mmHg 24%
    05:00 +19°C° 0 mm 3 m/s 680 mmHg 25%
    06:00 +21°C° 0 mm 3 m/s 680 mmHg 23%
    07:00 +22°C° 0 mm 3 m/s 681 mmHg 20%
    08:00 +25°C° 0 mm 3 m/s 682 mmHg 18%
    09:00 +28°C° 0 mm 4 m/s 682 mmHg 17%
    10:00 +30°C° 0 mm 4 m/s 683 mmHg 15%
    11:00 +34°C° 0 mm 5 m/s 683 mmHg 14%
    12:00 +35°C° 0 mm 5 m/s 683 mmHg 13%
    13:00 +36°C° 0 mm 4 m/s 682 mmHg 12%
    14:00 +37°C° 0 mm 4 m/s 682 mmHg 11%
    15:00 +37°C° 0 mm 4 m/s 682 mmHg 11%
    16:00 +37°C° 0 mm 4 m/s 681 mmHg 11%
    17:00 +36°C° 0 mm 4 m/s 681 mmHg 11%
    18:00 +34°C° 0 mm 5 m/s 681 mmHg 20%
    19:00 +30°C° 0 mm 7 m/s 682 mmHg 29%
    20:00 +27°C° 0 mm 8 m/s 682 mmHg 38%
    21:00 +24°C° 0 mm 7 m/s 682 mmHg 45%
    22:00 +22°C° 0 mm 6 m/s 682 mmHg 51%
    23:00 +20°C° 0 mm 5 m/s 683 mmHg 58%

    24 Septembrie, Marţi

    Timp Temperatura Precipitaţii Vânt Presiune Umiditate
    00:00 +19°C° 0 mm 5 m/s 682 mmHg 64%
    01:00 +17°C° 0 mm 5 m/s 682 mmHg 69%
    02:00 +17°C° 0 mm 4 m/s 682 mmHg 75%
    03:00 +15°C° 0 mm 5 m/s 683 mmHg 75%
    04:00 +15°C° 0 mm 5 m/s 683 mmHg 76%
    05:00 +15°C° 0 mm 6 m/s 683 mmHg 76%
    06:00 +15°C° 0 mm 6 m/s 683 mmHg 74%
    07:00 +16°C° 0 mm 6 m/s 684 mmHg 72%
    08:00 +16°C° 0 mm 5 m/s 684 mmHg 69%
    09:00 +19°C° 0 mm 5 m/s 685 mmHg 62%
    10:00 +21°C° 0 mm 5 m/s 685 mmHg 55%
    11:00 +23°C° 0 mm 4 m/s 685 mmHg 48%
    12:00 +26°C° 0 mm 4 m/s 684 mmHg 40%
    13:00 +28°C° 0 mm 3 m/s 683 mmHg 33%
    14:00 +30°C° 0 mm 3 m/s 683 mmHg 26%
    15:00 +31°C° 0 mm 3 m/s 682 mmHg 24%
    16:00 +31°C° 0 mm 3 m/s 682 mmHg 22%
    17:00 +31°C° 0 mm 3 m/s 681 mmHg 20%
    18:00 +29°C° 0 mm 3 m/s 681 mmHg 25%
    19:00 +26°C° 0 mm 3 m/s 681 mmHg 31%
    20:00 +23°C° 0 mm 4 m/s 681 mmHg 36%
    21:00 +22°C° 0 mm 4 m/s 681 mmHg 40%
    22:00 +21°C° 0 mm 4 m/s 681 mmHg 45%
    23:00 +20°C° 0 mm 4 m/s 681 mmHg 49%

    25 Septembrie, Miercuri

    Timp Temperatura Precipitaţii Vânt Presiune Umiditate
    00:00 +19°C° 0 mm 4 m/s 681 mmHg 54%
    01:00 +18°C° 0 mm 4 m/s 681 mmHg 59%
    02:00 +18°C° 0 mm 4 m/s 681 mmHg 64%
    03:00 +17°C° 0 mm 4 m/s 682 mmHg 69%
    04:00 +15°C° 0 mm 4 m/s 682 mmHg 75%
    05:00 +14°C° 0 mm 4 m/s 682 mmHg 80%
    06:00 +14°C° 0 mm 5 m/s 682 mmHg 78%
    07:00 +15°C° 0 mm 5 m/s 683 mmHg 76%
    08:00 +15°C° 0 mm 6 m/s 683 mmHg 74%
    09:00 +16°C° 0 mm 6 m/s 684 mmHg 69%
    10:00 +19°C° 0 mm 6 m/s 684 mmHg 63%
    11:00 +20°C° 0 mm 6 m/s 684 mmHg 57%
    12:00 +22°C° 0 mm 5 m/s 684 mmHg 50%
    13:00 +26°C° 0 mm 5 m/s 684 mmHg 42%
    14:00 +28°C° 0 mm 5 m/s 683 mmHg 35%
    15:00 +28°C° 0 mm 5 m/s 683 mmHg 34%
    16:00 +28°C° 0 mm 5 m/s 683 mmHg 34%
    17:00 +28°C° 0 mm 5 m/s 683 mmHg 33%
    18:00 +26°C° 0 mm 5 m/s 683 mmHg 38%
    19:00 +23°C° 0 mm 5 m/s 684 mmHg 43%
    20:00 +21°C° 0 mm 6 m/s 684 mmHg 48%
    21:00 +20°C° 0 mm 6 m/s 684 mmHg 53%
    22:00 +19°C° 0 mm 6 m/s 684 mmHg 57%
    23:00 +16°C° 0 mm 6 m/s 685 mmHg 61%
    Arată mai mult